Theta_e
334 331 327 322 322 331 324 318 309 320 327 327 323 318 314 314 315 314 312 309 308 308 317 316 317 318 319 319 317 315 312 305
333 332 327 325 321 324 320 318 316 322 326 327 325 317 315 315 315 314 311 309 308 307 313 316 316 316 317 317 316 314 312 308
331 330 329 325 323 323 322 322 321 324 325 326 325 316 315 316 315 316 314 310 308 308 309 314 316 315 314 313 313 312 310 308
330 328 326 324 323 323 323 317 321 322 323 323 323 316 315 316 317 318 317 314 309 309 309 310 313 313 313 311 310 309 308 308
327 326 325 325 324 323 320 321 317 317 321 323 322 316 316 317 318 318 318 318 316 313 311 311 310 309 310 310 308 308 309 308
327 325 325 324 323 323 319 316 322 322 321 322 319 315 316 317 318 318 318 318 318 317 316 313 311 309 308 309 308 308 309 310
327 326 326 324 322 321 317 325 322 323 321 317 317 315 316 315 316 317 318 318 318 318 318 316 313 310 308 308 308 308 309 311
327 326 325 324 322 319 317 320 319 320 319 316 315 315 314 315 314 315 317 317 318 319 318 319 316 313 310 309 309 310 309 311
325 326 324 324 322 320 314 317 318 318 317 316 315 315 315 314 314 314 316 317 318 318 318 319 318 317 312 310 310 310 309 310
323 323 323 320 317 317 320 318 317 318 317 317 318 317 317 314 314 317 318 318 319 319 318 319 318 317 316 313 311 310 310 309
322 322 322 315 316 320 320 320 319 316 315 316 315 315 316 315 318 318 318 318 320 320 319 319 318 317 316 316 316 316 310 310
321 322 319 317 314 315 317 320 317 316 315 314 315 316 315 316 316 315 315 320 320 321 320 319 319 318 316 316 316 314 311 309
320 320 318 316 315 316 316 316 316 315 314 314 318 317 315 314 313 314 317 318 318 320 320 320 320 318 317 314 314 313 311 308
318 318 316 315 314 315 316 315 315 314 314 316 318 319 319 315 314 315 313 315 320 321 321 321 320 319 317 315 314 312 310 309
318 317 317 315 315 315 317 316 315 314 314 316 317 316 317 318 318 318 315 318 320 320 322 322 322 321 318 316 313 312 312 311
318 318 318 317 316 318 317 314 314 314 313 315 315 313 315 316 317 317 317 319 319 319 321 322 322 322 318 317 317 314 313 312
318 318 318 318 317 315 314 314 313 313 314 315 312 313 317 318 318 318 317 319 320 320 321 322 322 321 320 320 318 316 313 312
317 317 317 316 315 315 316 317 317 316 314 313 313 312 315 316 317 319 319 320 320 320 322 322 321 320 320 319 318 317 314 313
316 316 316 315 316 318 316 317 318 318 317 316 316 318 319 320 320 321 322 323 323 322 323 322 321 320 320 319 316 315 313 312
316 316 315 316 316 318 319 320 321 321 321 321 321 321 321 321 321 322 323 323 323 323 322 321 320 322 320 318 316 314 313 313
Wind_Speed
15 23 14 26 49 42 38 38 41 38 34 33 34 34 33 32 29 28 27 25 24 25 27 23 18 12 11 11 12 12 15 16
22 19 21 23 19 15 27 32 40 39 36 34 33 34 32 30 28 28 26 25 24 24 25 24 19 13 10 9 9 11 12 13
19 16 12 3 9 17 17 22 35 38 36 33 33 33 32 29 28 27 25 24 24 24 23 22 19 12 9 8 7 9 10 11
11 10 13 17 17 21 35 37 28 33 34 34 32 32 32 30 27 26 25 23 21 20 19 19 18 11 8 7 5 6 7 9
10 15 16 19 22 33 38 42 35 32 32 32 32 32 31 30 27 24 23 20 18 15 14 14 13 11 10 6 4 5 6 9
13 17 19 28 36 39 36 39 41 41 38 33 30 32 30 28 25 22 19 17 15 13 11 10 9 10 9 7 4 4 5 7
18 20 22 28 40 39 42 39 39 39 39 37 32 31 27 23 22 20 17 16 14 11 10 7 6 8 7 6 4 3 3 5
25 25 30 33 37 38 41 37 37 36 36 36 33 29 25 24 20 17 16 14 12 8 8 6 7 7 7 6 4 3 2 1
35 29 30 33 39 42 43 40 39 38 36 33 32 26 23 20 17 17 15 12 10 8 7 8 7 5 6 5 5 4 4 4
26 29 31 33 38 46 43 42 40 38 37 31 27 22 18 18 16 14 13 12 9 6 9 8 6 5 5 5 4 5 7 7
28 30 31 38 40 44 37 37 40 40 35 29 28 23 18 17 15 15 13 11 10 11 12 11 8 9 8 8 8 8 8 8
27 34 31 35 38 44 36 36 39 39 35 33 34 21 19 18 16 14 14 15 16 17 16 14 13 14 13 13 14 13 12 12
24 34 31 37 37 41 42 42 38 35 38 41 23 18 20 19 19 17 18 21 19 18 19 19 19 19 17 20 21 20 21 18
31 33 31 35 35 41 43 43 37 41 39 32 24 23 23 22 21 21 21 23 22 22 23 22 21 22 23 23 20 23 26 24
35 35 36 39 42 38 36 40 35 44 45 34 27 27 24 21 21 21 24 27 25 23 24 23 23 23 27 23 11 15 18 27
36 37 38 39 39 37 39 41 42 48 46 36 30 30 28 26 24 24 27 26 25 25 24 25 26 26 27 31 32 23 11 8
35 36 37 40 41 39 41 40 40 42 42 37 35 33 30 30 29 28 29 29 31 29 28 29 27 27 31 32 32 33 29 16
37 39 42 45 43 41 39 36 36 37 39 37 34 33 33 34 33 31 30 30 31 32 31 29 28 27 31 36 33 32 33 30
40 43 47 47 43 40 39 37 35 35 34 35 35 35 34 33 32 33 32 28 33 33 34 32 30 29 31 32 30 24 22 24
46 49 50 48 44 42 40 38 38 39 37 36 36 35 31 26 26 29 27 28 35 31 32 32 29 28 29 28 18 20 23 25
Wind_Direction
216 151 167 341 353 167 163 157 161 155 156 155 148 141 139 135 133 129 125 124 124 131 137 124 112 128 119 112 89 74 65 62
198 205 224 302 52 76 133 150 151 155 156 155 148 140 138 135 132 127 123 122 121 127 140 140 132 129 121 105 92 74 62 59
211 221 230 122 118 160 151 146 153 155 157 155 149 142 140 135 131 125 122 122 125 130 139 146 148 151 144 112 92 74 61 60
235 214 167 153 158 167 159 152 152 155 157 159 150 145 142 138 134 130 127 130 129 132 139 142 149 159 156 128 100 72 52 48
206 174 174 172 164 161 157 159 154 159 165 157 155 150 147 144 139 135 132 132 137 134 129 132 129 150 166 149 123 82 62 51
204 187 177 168 168 172 160 154 165 161 162 163 161 155 152 148 144 138 139 141 137 131 132 134 126 144 157 145 131 110 78 66
214 204 191 175 169 165 160 165 163 161 161 163 166 159 152 150 153 153 152 156 142 144 129 130 144 144 156 166 166 145 94 64
206 193 179 178 173 168 166 163 162 163 167 167 163 157 163 162 160 161 172 171 153 145 138 160 174 159 158 172 179 178 176 61
188 195 180 177 178 177 171 167 169 167 163 157 159 164 170 170 169 174 176 180 178 168 181 182 179 173 182 189 207 218 235 248
189 181 176 174 170 165 166 168 166 160 160 161 159 163 173 178 179 174 185 193 194 200 218 215 203 215 217 218 236 255 260 254
189 187 183 179 176 169 164 168 167 165 165 168 169 181 184 186 187 193 201 211 212 231 234 230 239 242 239 255 267 281 268 279
197 184 179 177 176 181 174 174 174 177 171 173 181 196 197 198 206 214 222 229 227 237 241 235 239 239 243 252 266 269 263 264
185 177 179 178 186 184 185 183 182 186 179 185 195 205 211 213 218 221 223 226 232 241 247 243 236 231 238 238 245 254 253 252
183 184 185 188 188 186 187 190 191 192 194 196 203 210 218 222 231 234 236 234 234 241 243 245 239 236 233 234 241 245 245 247
193 194 191 189 189 197 196 200 204 196 196 205 210 217 223 227 232 239 236 236 239 250 252 248 245 245 238 236 227 226 251 249
193 194 197 197 195 198 198 194 196 200 203 207 211 223 226 233 238 242 239 246 249 258 259 257 249 252 239 238 241 245 228 223
195 198 199 195 193 192 189 192 197 199 205 210 222 225 230 237 240 242 240 245 251 255 255 251 244 254 248 252 246 243 238 224
194 193 191 187 188 193 198 203 204 207 214 222 227 230 236 240 241 243 247 252 251 253 254 249 259 266 258 259 246 242 240 241
197 192 189 191 196 202 206 209 212 216 220 224 227 230 233 238 241 244 247 253 254 254 248 252 262 268 259 272 251 250 241 258
202 200 197 201 208 211 212 216 220 226 229 232 232 232 233 242 246 246 247 251 252 254 254 257 260 256 259 254 257 238 246 255